Location: Street
(51.1247°N, 2.7429°W)
Time: 06:23:20
(UTC+01:00)

NANOSAT C BR1 - Pass Details

Date: 07 April 2023
Orbit: 573 x 587 km, 98.0° (Epoch: 29 May)

Event Time Altitude Azimuth Distance (km) Brightness Sun altitude
Rises 03:03:52 0° 25° (NNE) 2,806 ? -27.5°
Reaches altitude 10° 03:06:26 10° 41° (NE) 1,898 ? -27.3°
Maximum altitude 03:09:40 22° 93° (E) 1,281 ? -27.0°
Enters shadow 03:10:08 22° 103° (ESE) 1,296 ? -27.0°
